Weather History for Boscobel, WI

Change the Weather History Date:

Friday, February 8, 2013

  Actual Average (KPDC) Record (KPDC)
Temperature  
Mean Temperature 20 °F -  
Max Temperature 30 °F 29 °F 52 °F (1966)
Min Temperature 9 °F 8 °F -28 °F (1971)
Degree Days  
Heating Degree Days 45    
Moisture  
Dew Point 17 °F    
Average Humidity 73    
Maximum Humidity 92    
Minimum Humidity 56    
Precipitation  
Precipitation 0.00 in - - ()
Sea Level Pressure  
Sea Level Pressure 30.32 in    
Wind  
Wind Speed 4 mph (NE)    
Max Wind Speed 9 mph    
Max Gust Speed -    
Visibility 10 miles    
Events      
Averages and records for this station are not official NWS values.
T = Trace of Precipitation, MM = Missing Value Source: NWS Daily Summary

Daily Weather History Graph

Daily Weather History Graph

Search for Another Location

Airport:

Trip Planner

Search our weather history database for the weather conditions in past years. The results will help you decide how hot, cold, wet, or windy it might be!

Date:

Astronomy

Feb. 08, 2013 Rise Set
Actual Time 7:09 AM CST 5:24 PM CST
Civil Twilight 6:39 AM CST 5:54 PM CST
Nautical Twilight 6:06 AM CST 6:28 PM CST
Astronomical Twilight 5:33 AM CST 7:01 PM CST
Moon 5:39 AM CST (2/8) 3:57 PM CST (2/8)
Length of Visible Light 11h 14m
Length of Day
10h 15m
Waning Crescent, 3% of the Moon is Illuminated
Feb 8
Waning Crescent
Feb 10
New
Feb 17
First Quarter
Feb 25
Full
Mar 4
Last Quarter

Hourly Weather History & Observations

Time (CST) Temp. Windchill Dew Point Humidity Pressure Visibility Wind Dir Wind Speed Gust Speed Precip Events Conditions
12:53 AM 28.9 °F 20.4 °F 23.0 °F 78% 30.19 in 10.0 mi NNE 9.2 mph - N/A   Overcast
1:53 AM 28.0 °F 20.8 °F 21.0 °F 75% 30.22 in 10.0 mi NNE 6.9 mph - N/A   Overcast
2:31 AM 28.4 °F 24.6 °F 21.2 °F 74% 30.19 in 10.0 mi Variable 3.5 mph - N/A   Overcast
2:38 AM 28.4 °F 23.3 °F 21.2 °F 74% 30.20 in 10.0 mi NE 4.6 mph - N/A   Overcast
2:53 AM 28.0 °F 22.8 °F 21.0 °F 75% 30.22 in 10.0 mi NE 4.6 mph - N/A   Overcast
3:53 AM 28.0 °F 20.8 °F 19.9 °F 72% 30.26 in 10.0 mi NNE 6.9 mph - N/A   Overcast
4:53 AM 27.0 °F 21.6 °F 21.0 °F 78% 30.28 in 10.0 mi North 4.6 mph - N/A   Overcast
5:53 AM 26.1 °F - 19.9 °F 78% 30.29 in 10.0 mi Calm Calm - N/A   Overcast
6:53 AM 25.0 °F 15.5 °F 18.0 °F 75% 30.33 in 10.0 mi North 9.2 mph - N/A   Overcast
7:53 AM 25.0 °F 19.3 °F 17.1 °F 72% 30.37 in 10.0 mi NNE 4.6 mph - N/A   Overcast
8:53 AM 26.1 °F 20.5 °F 18.0 °F 71% 30.38 in 10.0 mi NNE 4.6 mph - N/A   Overcast
9:19 AM 26.6 °F 21.2 °F 17.6 °F 69% 30.35 in 10.0 mi ENE 4.6 mph - N/A   Mostly Cloudy
9:53 AM 26.1 °F 21.9 °F 17.1 °F 69% 30.39 in 10.0 mi ENE 3.5 mph - N/A   Partly Cloudy
11:53 AM 28.0 °F - 17.1 °F 63% 30.35 in 10.0 mi Calm Calm - N/A   Clear
12:53 PM 28.9 °F - 17.1 °F 61% 30.35 in 10.0 mi Calm Calm - N/A   Clear
1:53 PM 30.9 °F - 18.0 °F 59% 30.34 in 10.0 mi Calm Calm - N/A   Clear
2:53 PM 30.9 °F 27.5 °F 18.0 °F 59% 30.33 in 10.0 mi East 3.5 mph - N/A   Clear
3:53 PM 30.9 °F 27.5 °F 17.1 °F 57% 30.34 in 10.0 mi East 3.5 mph - N/A   Clear
4:53 PM 30.0 °F - 16.0 °F 56% 30.33 in 10.0 mi Calm Calm - N/A   Clear
5:53 PM 25.0 °F - 17.1 °F 72% 30.33 in 10.0 mi Calm Calm - N/A   Clear
6:53 PM 21.9 °F - 15.1 °F 75% 30.35 in 10.0 mi Calm Calm - N/A   Clear
7:53 PM 19.0 °F - 15.1 °F 85% 30.35 in 10.0 mi Calm Calm - N/A   Clear
8:53 PM 16.0 °F - 12.9 °F 88% 30.35 in 10.0 mi Calm Calm - N/A   Clear
9:53 PM 12.0 °F - 10.0 °F 92% 30.35 in 7.0 mi Calm Calm - N/A   Clear
10:53 PM 10.9 °F - 7.0 °F 84% 30.34 in 8.0 mi Calm Calm - N/A   Clear
11:41 PM 10.4 °F 4.0 °F 6.8 °F 85% 30.35 in 9.0 mi North 3.5 mph - N/A   Mostly Cloudy
11:53 PM 9.0 °F - 6.1 °F 88% 30.40 in 9.0 mi Calm Calm - N/A   Mostly Cloudy